www.pogodaiklimat.ru

Погода и климат >> Архив погоды >> Казахстан >> Шымкент


АРХИВ ПОГОДЫ в Шымкенте

Время (UTC), дата Ветер
(напр.,м/с)
 
Видим.   Явления Облачность Т
(С)
Тd
(С)
f
(%)
Тe
(С)
Тes
(С)
Комфортность P
(гПа)
Po
(гПа)
Тmin
(С)
Tmax
(С)
R
(мм)
R24
(мм)
S
(см)
00 12.12 С 1 н/о дымка {туман} ясно -0.1 -0.1 100 -2 -2 по сезону 1026.3 952.4
03 12.12 штиль 0 2000 м дымка 3/0
[Ci ing]
-0.8 -0.9 99 -2 -2 по сезону 1027.1 953.0
06 12.12 СВ 1 2000 м дымка ясно +5.2 +5.2 100 +4 +7 по сезону 1025.5 953.2 -0.9
09 12.12 штиль 0 50 км ясно +7.3 +4.4 82 +6 +10 тепло 1023.9 952.1
12 12.12 штиль 0 2000 м дымка ясно +4.3 +4.3 100 +3 +3 по сезону 1025.0 952.4
15 12.12 ЮЗ 1 н/о дымка ясно +1.4 +1.4 100 -1 -1 по сезону 1025.7 952.3 +7.3
18 12.12 ЮЗ 1 н/о дымка ясно +1.7 +0.9 94 -0 -0 по сезону 1025.3 952.0 +7.3
21 12.12 ЮЗ 1 н/о дымка ясно -0.1 -0.1 100 -2 -2 по сезону 1025.4 951.6
00 13.12 СЗ 1 н/о дымка ясно +0.7 +0.2 96 -1 -1 по сезону 1025.1 951.5
03 13.12 В 1 50 км 6/0
[Ci fib]
+1.6 -2.1 76 0 0 по сезону 1025.1 951.7
06 13.12 В 1 50 км 8/0
[Ci fib]
+9.0 +0.2 54 +9 +12 тепло 1023.7 952.3 -0.5
09 13.12 штиль 0 50 км 8/0
[Ci fib]
+11.9 -1.7 39 +12 +15 тепло 1022.0 951.4
12 13.12 В 1 50 км 8/0
[Ci fib]
+7.7 +1.5 65 +7 +7 тепло 1023.2 951.5
15 13.12 З 1 н/о ясно +4.3 -2.6 61 +3 +3 по сезону 1024.3 951.7 +12.8
18 13.12 ЮЗ 1 н/о ясно +2.1 -2.7 71 +1 +1 по сезону 1024.5 951.3 +12.8
21 13.12 З 1 н/о ясно +2.8 -3.5 63 +2 +2 по сезону 1024.5 951.5
00 14.12 ЮВ 1 н/о ясно +3.0 -5.1 55 +2 +2 по сезону 1024.8 951.8
03 14.12 В 1 50 км 9/0
[Ci ing]
+1.7 -5.0 61 0 0 по сезону 1025.4 952.0
06 14.12 В 1 50 км 10/0
[Ci ing]
+12.3 +0.3 44 +13 +15 тепло 1023.3 952.7 +1.4
09 14.12 В 1 50 км 9/0
[Ci ing]
+16.4 -6.7 20 +17 +20 тепло 1021.5 951.9
12 14.12 В 1 50 км 8/0
[Ac trans Ci ing]
+10.6 -1.7 42 +11 +11 тепло 1023.2 952.2
15 14.12 В 2 н/о 8/0
[Ac trans Ci fib]
+6.0 -0.7 62 +4 +4 по сезону 1024.8 952.5 +16.8
18 14.12 В 1 н/о 8/0
[Ac trans Ci fib]
+4.0 +0.1 76 +3 +3 тепло 1025.5 952.7 +16.8
21 14.12 В 1 н/о ясно +5.3 -1.9 60 +5 +5 тепло 1025.5 953.0
00 15.12 штиль 0 н/о 8/0
[Ac trans Ci fib]
+5.4 -1.8 60 +5 +5 тепло 1025.6 953.1
03 15.12 ЮВ 3 50 км 3/0
[Ac trans]
+5.1 -1.9 61 +2 +2 по сезону 1026.1 953.6
06 15.12 Ю 1 50 км 6/0
[Ci ing]
+11.7 -2.7 36 +12 +15 тепло 1024.4 953.6 +3.4
09 15.12 штиль 0 50 км 10/0
[Ac trans Ci ing]
+12.7 -4.1 31 +13 +15 тепло 1022.2 951.7
12 15.12 ЮВ 2 50 км 10/6 600 м
[Sc Ac As]
+8.4 +1.5 62 +7 +7 тепло 1021.5 950.1
15 15.12 ЮВ 1 н/о 10/8 600 м
[Cb cap Ac As]
+6.8 +1.2 67 +6 +6 тепло 1020.9 949.2 +14.4
18 15.12 ЮЗ 1 н/о 10/10 600 м
[Cb cap]
+6.0 +0.5 68 +5 +5 тепло 1022.5 950.4 +14.4
21 15.12 ЮЗ 6-15
{15}
н/о 10/10 600 м
[Cb cap]
+6.0 -0.7 62 +2 +2 по сезону 1025.1 952.9
00 16.12 ЮЗ 8-18
{20}
н/о в посл. час ливневой дождь 10/10 600 м
[Cb cap]
+2.5 +1.8 95 -4 -4 по сезону 1029.7 956.2
03 16.12 ЮЗ 5
{18}
2000 м слабый ливневой снег 10/10 600 м
[Cb cap]
+0.5 +0.5 100 -6 -6 холодно 1033.5 959.2 1
06 16.12 ЮЗ 4 2000 м в посл. час ливневой снег 10/10 600 м
[Cb cap]
0.0 0.0 100 -6 -6 очень
холодно
1036.0 961.4 +0.5 0.8
09 16.12 З 2 2000 м дымка 10/10 600 м
[Cb cap]
+1.2 +1.2 100 -3 -3 прохладно 1035.7 961.5
12 16.12 С 1 2000 м дымка 10/10 600 м
[Cb cap]
+0.6 +0.6 100 -2 -2 прохладно 1035.5 961.2
15 16.12 СВ 1 н/о дымка 10/10 600 м
[Sc]
+0.6 +0.6 100 -2 -2 по сезону 1035.1 960.8 +1.6
18 16.12 ЮЗ 1 н/о дымка 10/10 300 м
[Sc]
-0.4 -0.4 100 -3 -3 по сезону 1032.2 957.8 +1.6 1
21 16.12 З 1 н/о дымка 6/0
[Ac trans]
-0.1 -0.1 100 -2 -2 по сезону 1029.2 955.1
00 17.12 З 1 н/о дымка 10/10 600 м
[Sc]
+0.6 +0.3 98 -2 -2 по сезону 1027.2 953.4
03 17.12 В 1 50 км 10/10 600 м
[Cb cap]
+1.6 -0.8 84 -0 -0 по сезону 1026.1 952.6
06 17.12 В 1 50 км 10/10 600 м
[Sc]
+5.6 0.0 67 +5 +5 по сезону 1024.6 952.3 -0.6
09 17.12 ЮВ 1 50 км 10/10 600 м
[Cb cap]
+7.9 0.0 57 +8 +8 тепло 1022.1 950.6
12 17.12 ЮВ 1 50 км 10/10 600 м
[Cb cap]
+5.5 -0.4 66 +5 +5 по сезону 1021.6 949.5
15 17.12 ЮЗ 1 н/о 10/10 600 м
[Cb cap]
+4.7 +1.2 78 +4 +4 тепло 1021.9 949.6 +8.2
18 17.12 ЮЗ 5 н/о слабый ливневой дождь 10/10 600 м
[Cb cap]
+4.5 +4.0 97 -1 -1 по сезону 1023.2 950.8 +8.2
21 17.12 ЮЗ 4 н/о слабый ливневой дождь 10/10 600 м
[Cb cap]
+0.3 +0.3 100 -5 -5 прохладно 1025.9 952.1
00 18.12 З 2 н/о в посл. час ливневой снег 10/10 600 м
[Cb cap]
-3.1 -3.2 99 -7 -7 прохладно 1029.3 954.4
03 18.12 З 1 2000 м дымка 10/10 600 м
[Cb cap]
-3.5 -3.7 99 -6 -6 холодно 1031.6 956.5 7
06 18.12 З 1 2000 м дымка 8/0
[Ac As]
-2.2 -2.2 100 -5 -3 холодно 1030.6 955.9 -3.5 10
09 18.12 С 1 2000 м дымка 10/3 600 м
[Sc Ac As]
-0.8 -1.5 95 -3 -2 прохладно 1028.2 954.0
12 18.12 штиль 0 2000 м дымка 10/8 600 м
[Sc Ac As]
-0.8 -0.9 99 -2 -2 прохладно 1027.2 953.0
15 18.12 штиль 0 н/о дымка 10/8 600 м
[Sc Ac As]
-1.6 -1.5 100 -3 -3 прохладно 1026.6 952.3 +0.1
18 18.12 С 1 н/о дымка 10/10 600 м
[Sc]
-1.5 -1.7 99 -4 -4 по сезону 1024.8 950.6 +0.1

 

Местоположение метеостанции Шымкент (Южно-Казахстанская область, Казахстан): широта 42.32 долгота 69.70 высота над уровнем моря 604 м.

В архиве по умолчанию представлена погода в Шымкенте за последнюю неделю. Архивные данные за месяц целиком и за предыдущие месяцы, начиная с января 2011 года, Вы можете получить, выбрав интересующий диапазон дат из раскрывающегося списка и нажав кнопку "Ввод!".


*Определитесь, кто Вы:
робот инопланетянин человек

Внимание! Время в таблицах - всемирное. Для получения местного времени необходимо прибавить поправку, которая в Шымкенте равна 6 ч.

Смотрите также архив погоды в соседних городах и на ближайших метеорологических станциях:

Погода в Нурсате (Южно-Казахстанская область, Казахстан) (8 км)
Погода в Тасарыке (Южно-Казахстанская область, Казахстан) (38 км)
Погода в Ауле Турара Рыскулова (Южно-Казахстанская область, Казахстан) (52 км)
Погода в Шуылдаке (Южно-Казахстанская область, Казахстан) (60 км)
Погода в Казыгурте (Южно-Казахстанская область, Казахстан) (67 км)
Погода в Красноярской (Южно-Казахстанская область, Казахстан) (69 км)
Погода в Пскеме (Ташкентская область, Узбекистан) (72 км)
Погода в Арысе (Южно-Казахстанская область, Казахстан) (75 км)
Погода в Бугуни (Южно-Казахстанская область, Казахстан) (75 км)
Погода в Шаяне (Южно-Казахстанская область, Казахстан) (83 км)

Пояснения к столбцам:

Ветер - указаны скорость ветра в м/с - средняя за 10 мин, порывы в срок и между сроками (в фигурных скобках) и направление, откуда дует ветер: С - северный, СВ - северо-восточный, В - восточный, ЮВ - юго-восточный, Ю - южный, ЮЗ - юго-западный, З - западный, СЗ - северо-западный.
Видимость - горизонтальная дальность видимости в метрах или километрах. При видимости от 1 до 10 км при отсутствии осадков обычно наблюдается дымка, при ухудшении видимости до 1 км и менее - туман. В сухую погоду видимость может ухудшаться дымом, пылью или мглою.
Явления - указаны атмосферные явления, наблюдавшиеся в срок или в последний час перед сроком; фигурными скобками обозначены явления, наблюдавшиеся между сроками (за 1-3 часа до срока); квадратными скобками обозначены град или гололедные отложения с указанием их диаметра в мм.
Облачность - указаны через наклонную черту общая и нижняя облачность в баллах и высота нижней границы облаков в метрах; квадратными скобками обозначены формы облаков: Ci - перистые, Cs - перисто-слоистые, Cc - перисто-кучевые, Ac - высококучевые, As - высокослоистые, Sc - слоисто-кучевые, Ns - слоисто-дождевые, Cu - кучевые, Cb - кучево-дождевые. Подробнее классификацию облаков см. в Атласе облаков (PDF).
T - Температура воздуха - температура, измеренная на высоте 2 м над землей.
Td - Температура точки росы - температура, при понижении до которой содержащийся в воздухе водяной пар достигнет насыщения.
f - Относительная влажность воздуха - влажноcть воздуха, измеренная на высоте 2 м над землей.
Te - Эффективная температура - температура, которую ощущает одетый по сезону человек в тени. Характеристика душности погоды. При расчете учитывается влияние влажности воздуха и скорости ветра на теплоощущения человека.
Tes - Эффективная температура на солнце - температура, которую ощущает человек, с поправкой на солнечный нагрев. Характеристика знойности погоды. Зависит от высоты солнца над горизонтом, облачности и скорости ветра. Ночью, в пасмурную погоду, а также при ветре 12 м/с и более поправка равна нулю.
P - Атмосферное давление - приведенное к уровню моря атмосферное давление.
Po - Атмосферное давление - измеренное на уровне метеостанции атмосферное давление.
Tmin - Минимальная температура - минимум температуры воздуха на высоте 2 м над землей.
Tmax - Максимальная температура - максимум температуры воздуха на высоте 2 м над землей.
R - Количество осадков - Количество выпавших осадков за период времени, мм. При наведении курсора мыши на число - период времени, за который выпало указанное количество осадков.
R24 - Количество осадков - Количество выпавших осадков за 24 часа, мм.
S - Снежный покров - Высота снежного покрова, см. При наведении курсора мыши на число - состояние снежного покрова и степень покрытия местности в баллах.